COSMOS 2114

Satellite information

Favourite Embed

Satellite Type and Status

PAYLOADIN ORBIT

Key statistics

Satellite COSMOS 2114 at a glance.

Uptime

12617

Days in orbit

Revolutions

≈ 12.6

Per day

Orbit

LEO

Low Earth Orbit

Inclination

82.6

Latest

Satellite identification and parameters

Extended collection of information and parameters for COSMOS 2114.

Object identification

Identified? True

Debris? False

Object name: COSMOS 2114

International designator: 1990-114A

Object number (NORAD): 21028

Object ID (CCSDS): 21028

Country: COMMONWEALTH OF INDEPENDENT STATES (CIS)

Current information (Y/N): Y

RCS size: LARGE

Orbital parameters

Period: 114.033 minutes

Inclination: 82.5774 deg

SMA: 7789.579 km

Apoapsis: 1415.718 km

Periapsis: 1407.17 km

RAAN: 93.7758 deg

Eccentricy: 0.0005487

Argument of periapsis: 6.6432 deg

Mean anomaly: 51.5052 deg

Mean motion: 12.62791842 rev/day

Mean motion (dot): 0.00000011 rev/day2

B* drag term: 0.0000014871 1/REarth

Two-line elements (TLE)

Creation date: July 8, 2025, 2:27 a.m.

Reference frame: TEME

Reference center: EARTH

Epoch: July 7, 2025, 4:46 p.m. UTC

TLE line 0: 0 COSMOS 2114

TLE line 1: 1 21028U 90114A 25188.69872646 .00000011 00000-0 14871-5 0 9998

TLE line 2: 2 21028 82.5774 93.7758 0005487 6.6432 51.5052 12.62791842591917

Live tracking on map

Real-time ground track for satellite COSMOS 2114.

In-orbit conjunctions

There are no conjunctions computed for COSMOS 2114, at the moment. Check back to stay up to date, as we update our databases every day.

Go to all conjunctions

Associated space launch

Second generation store-dump military communications satellite

COSMOS 2114 was lifted into orbit during the mission ‘Tsiklon-3 | Strela-3 55 to 60’, on board a Tsiklon-3 space rocket.

The launch took place on Dec. 22, 1990, 7:28 a.m. from 32/2.

For more information about the launch, click the button.

Launch to space Tsiklon-3 | Strela-3 55 to 60
Tsiklon-3 | Strela-3 55 to 60

Agency: N/A

Status: Launch Successful

Launch date: Dec. 22, 1990, 7:28 a.m. UTC

Rocket: Tsiklon-3

Launch pad: 32/2

Location: Plesetsk Cosmodrome, Russian Federation

...

Latest news about this satellite

There are no fresh news available about this satellite. Check back as we update our databases every day.


Newsletter sign-up

Weekly statistics, charts and insights to help you stay on top of the space industry.